QPF
0.09 0.08 0.09 0.09 0.07 0.07 0.07 0.08 0.09 0.09 0.09 0.09 0.10 0.12 0.12 0.10 0.08 0.08 0.08 0.07 0.05 0.05 0.04 0.04 0.05 0.07 0.06 0.06 0.04 0.04 0.04 0.05 0.05 0.06 0.09 0.13 0.10 0.08 0.06 0.05 0.04 0.03 0.03
0.07 0.08 0.08 0.08 0.08 0.07 0.05 0.06 0.06 0.07 0.07 0.07 0.08 0.08 0.08 0.07 0.05 0.06 0.09 0.09 0.05 0.04 0.03 0.03 0.05 0.06 0.07 0.05 0.03 0.04 0.04 0.05 0.06 0.06 0.08 0.09 0.06 0.05 0.05 0.05 0.05 0.04 0.03
0.08 0.08 0.07 0.07 0.07 0.06 0.04 0.04 0.05 0.06 0.06 0.08 0.10 0.09 0.09 0.06 0.04 0.05 0.07 0.09 0.06 0.04 0.04 0.04 0.05 0.05 0.07 0.05 0.03 0.05 0.05 0.05 0.06 0.07 0.08 0.08 0.07 0.06 0.05 0.05 0.05 0.04 0.03
0.08 0.09 0.07 0.06 0.06 0.06 0.06 0.06 0.05 0.07 0.07 0.08 0.09 0.10 0.10 0.09 0.08 0.06 0.07 0.09 0.09 0.08 0.07 0.05 0.05 0.05 0.05 0.05 0.05 0.06 0.05 0.05 0.06 0.08 0.08 0.08 0.07 0.05 0.04 0.04 0.04 0.03 0.03
0.05 0.08 0.07 0.07 0.07 0.08 0.07 0.05 0.05 0.06 0.06 0.06 0.08 0.09 0.09 0.08 0.08 0.07 0.07 0.08 0.08 0.08 0.09 0.07 0.06 0.06 0.05 0.07 0.08 0.07 0.06 0.06 0.09 0.11 0.09 0.07 0.05 0.04 0.03 0.04 0.03 0.02 0.04
0.06 0.08 0.07 0.07 0.08 0.08 0.07 0.05 0.05 0.05 0.04 0.05 0.05 0.07 0.09 0.09 0.09 0.08 0.06 0.07 0.09 0.10 0.09 0.08 0.10 0.07 0.06 0.06 0.09 0.08 0.06 0.06 0.07 0.08 0.08 0.06 0.06 0.05 0.04 0.04 0.04 0.04 0.03
0.08 0.09 0.07 0.08 0.09 0.09 0.07 0.06 0.07 0.05 0.05 0.04 0.06 0.07 0.08 0.08 0.07 0.06 0.05 0.07 0.09 0.09 0.08 0.07 0.08 0.09 0.07 0.04 0.03 0.04 0.05 0.07 0.08 0.07 0.07 0.06 0.06 0.06 0.06 0.06 0.05 0.04 0.03
0.09 0.07 0.06 0.06 0.07 0.10 0.06 0.06 0.07 0.05 0.04 0.04 0.05 0.07 0.10 0.12 0.09 0.05 0.05 0.06 0.06 0.06 0.06 0.07 0.08 0.09 0.08 0.06 0.04 0.03 0.05 0.06 0.08 0.08 0.06 0.06 0.07 0.08 0.09 0.08 0.08 0.06 0.05
0.08 0.08 0.06 0.05 0.06 0.07 0.07 0.06 0.05 0.05 0.05 0.05 0.05 0.08 0.09 0.11 0.09 0.08 0.06 0.04 0.04 0.04 0.04 0.05 0.05 0.07 0.07 0.07 0.07 0.05 0.05 0.04 0.05 0.06 0.08 0.09 0.07 0.07 0.07 0.06 0.06 0.05 0.05
0.08 0.09 0.08 0.07 0.06 0.05 0.06 0.05 0.04 0.04 0.05 0.05 0.06 0.06 0.07 0.07 0.06 0.06 0.06 0.05 0.05 0.04 0.04 0.03 0.04 0.05 0.05 0.07 0.08 0.06 0.05 0.02 0.02 0.04 0.06 0.07 0.08 0.09 0.07 0.05 0.04 0.03 0.03
0.07 0.06 0.06 0.07 0.07 0.05 0.05 0.06 0.05 0.04 0.03 0.03 0.04 0.04 0.04 0.04 0.03 0.03 0.04 0.04 0.05 0.04 0.04 0.04 0.04 0.05 0.05 0.07 0.08 0.06 0.05 0.02 0.02 0.03 0.04 0.05 0.06 0.08 0.08 0.05 0.04 0.04 0.04
0.05 0.06 0.06 0.08 0.08 0.06 0.04 0.05 0.05 0.04 0.03 0.04 0.04 0.04 0.03 0.03 0.03 0.03 0.04 0.04 0.04 0.04 0.04 0.05 0.05 0.04 0.05 0.05 0.06 0.06 0.04 0.02 0.02 0.03 0.02 0.02 0.04 0.06 0.11 0.10 0.09 0.07 0.06
0.04 0.05 0.07 0.08 0.08 0.06 0.05 0.04 0.05 0.04 0.04 0.05 0.04 0.04 0.04 0.04 0.04 0.04 0.04 0.05 0.05 0.05 0.05 0.05 0.05 0.05 0.05 0.05 0.06 0.06 0.03 0.02 0.02 0.01 0.01 0.01 0.02 0.05 0.09 0.08 0.07 0.07 0.07
0.03 0.03 0.04 0.05 0.06 0.06 0.06 0.07 0.06 0.06 0.06 0.06 0.04 0.04 0.04 0.05 0.06 0.05 0.05 0.06 0.06 0.07 0.06 0.05 0.04 0.04 0.04 0.04 0.05 0.03 0.02 0.01 0.01 0.01 0.00 0.01 0.01 0.03 0.04 0.03 0.03 0.03 0.03
0.01 0.02 0.02 0.02 0.03 0.05 0.06 0.07 0.07 0.07 0.07 0.07 0.06 0.06 0.06 0.06 0.07 0.07 0.06 0.06 0.07 0.07 0.08 0.05 0.04 0.04 0.04 0.03 0.04 0.02 0.02 0.02 0.01 0.00 0.00 0.00 0.01 0.01 0.01 0.02 0.02 0.02 0.02
0.01 0.01 0.01 0.01 0.02 0.03 0.04 0.06 0.06 0.06 0.07 0.07 0.07 0.06 0.06 0.06 0.06 0.05 0.04 0.05 0.06 0.08 0.08 0.06 0.04 0.04 0.04 0.03 0.03 0.02 0.02 0.02 0.01 0.00 0.00 0.01 0.01 0.01 0.01 0.02 0.02 0.02 0.02
0.01 0.02 0.02 0.01 0.01 0.02 0.03 0.04 0.04 0.05 0.06 0.07 0.07 0.07 0.06 0.06 0.06 0.05 0.06 0.07 0.07 0.08 0.10 0.08 0.06 0.06 0.05 0.04 0.04 0.04 0.03 0.03 0.02 0.01 0.01 0.01 0.01 0.02 0.02 0.02 0.01 0.02 0.02
0.01 0.02 0.02 0.02 0.02 0.02 0.02 0.02 0.02 0.03 0.04 0.05 0.05 0.06 0.06 0.06 0.07 0.07 0.08 0.09 0.09 0.10 0.09 0.08 0.09 0.07 0.06 0.05 0.05 0.04 0.03 0.02 0.03 0.01 0.01 0.01 0.01 0.02 0.02 0.01 0.01 0.01 0.02
0.01 0.01 0.01 0.01 0.01 0.01 0.01 0.01 0.02 0.02 0.04 0.06 0.07 0.07 0.08 0.09 0.10 0.09 0.09 0.09 0.07 0.06 0.06 0.05 0.05 0.06 0.05 0.05 0.04 0.03 0.03 0.03 0.02 0.02 0.01 0.01 0.01 0.01 0.02 0.02 0.02 0.01 0.02
0.02 0.02 0.01 0.01 0.01 0.01 0.00 0.00 0.01 0.02 0.03 0.05 0.06 0.07 0.08 0.08 0.09 0.08 0.07 0.07 0.06 0.07 0.06 0.04 0.05 0.05 0.05 0.04 0.04 0.03 0.03 0.03 0.02 0.02 0.02 0.02 0.02 0.02 0.02 0.03 0.03 0.02 0.02
0.01 0.02 0.02 0.02 0.01 0.01 0.01 0.01 0.01 0.02 0.02 0.04 0.06 0.06 0.06 0.07 0.07 0.07 0.06 0.05 0.06 0.06 0.05 0.05 0.04 0.04 0.04 0.05 0.05 0.04 0.05 0.03 0.02 0.02 0.03 0.03 0.02 0.02 0.03 0.03 0.04 0.04 0.03
0.01 0.01 0.02 0.02 0.02 0.01 0.02 0.02 0.02 0.02 0.02 0.02 0.03 0.05 0.06 0.06 0.06 0.05 0.04 0.03 0.04 0.04 0.05 0.05 0.03 0.04 0.05 0.06 0.07 0.06 0.05 0.04 0.02 0.02 0.03 0.03 0.03 0.03 0.03 0.04 0.05 0.05 0.05
0.02 0.02 0.02 0.02 0.02 0.03 0.03 0.01 0.01 0.01 0.01 0.02 0.02 0.03 0.03 0.03 0.04 0.02 0.02 0.02 0.02 0.03 0.03 0.03 0.04 0.04 0.05 0.06 0.07 0.05 0.04 0.03 0.02 0.02 0.02 0.02 0.02 0.03 0.03 0.04 0.05 0.05 0.07
0.03 0.02 0.02 0.02 0.03 0.03 0.03 0.01 0.01 0.01 0.01 0.01 0.01 0.02 0.01 0.01 0.01 0.02 0.02 0.02 0.02 0.02 0.03 0.02 0.02 0.03 0.04 0.04 0.05 0.05 0.04 0.02 0.01 0.01 0.01 0.01 0.01 0.02 0.03 0.04 0.05 0.06 0.07
0.02 0.02 0.02 0.02 0.02 0.03 0.03 0.01 0.01 0.01 0.01 0.01 0.01 0.02 0.02 0.01 0.02 0.02 0.02 0.03 0.03 0.03 0.03 0.03 0.02 0.02 0.02 0.02 0.03 0.04 0.02 0.01 0.01 0.01 0.01 0.01 0.01 0.02 0.02 0.03 0.04 0.05 0.07
0.02 0.03 0.02 0.02 0.02 0.02 0.03 0.02 0.02 0.01 0.01 0.01 0.02 0.02 0.01 0.01 0.02 0.02 0.02 0.02 0.01 0.01 0.01 0.02 0.02 0.02 0.02 0.01 0.02 0.03 0.02 0.02 0.01 0.01 0.00 0.01 0.01 0.03 0.04 0.04 0.03 0.03 0.05
MSLP
1014.74 1015.08 1015.36 1015.61 1015.83 1016.03 1016.18 1016.29 1016.33 1016.31 1016.25 1016.16 1016.08 1016.04 1016.08 1016.21 1016.43 1016.74 1017.09 1017.45 1017.80 1018.09 1018.31 1018.45 1018.53 1018.55 1018.54 1018.51 1018.48 1018.46 1018.46 1018.47 1018.49 1018.52 1018.55 1018.56 1018.54 1018.49 1018.41 1018.28 1018.10 1017.89 1017.67
1014.79 1015.10 1015.37 1015.62 1015.84 1016.02 1016.17 1016.27 1016.32 1016.32 1016.27 1016.21 1016.15 1016.14 1016.17 1016.28 1016.46 1016.70 1016.98 1017.28 1017.57 1017.82 1018.04 1018.21 1018.32 1018.39 1018.42 1018.42 1018.40 1018.36 1018.32 1018.28 1018.25 1018.23 1018.21 1018.20 1018.18 1018.13 1018.04 1017.91 1017.73 1017.52 1017.27
1014.81 1015.11 1015.38 1015.64 1015.87 1016.07 1016.22 1016.33 1016.39 1016.40 1016.38 1016.34 1016.31 1016.30 1016.32 1016.39 1016.50 1016.65 1016.83 1017.02 1017.23 1017.43 1017.63 1017.80 1017.95 1018.07 1018.15 1018.18 1018.18 1018.13 1018.06 1017.98 1017.89 1017.82 1017.77 1017.72 1017.69 1017.64 1017.56 1017.44 1017.28 1017.06 1016.82
1014.84 1015.14 1015.44 1015.72 1015.98 1016.19 1016.36 1016.48 1016.55 1016.58 1016.58 1016.56 1016.54 1016.53 1016.53 1016.54 1016.57 1016.61 1016.67 1016.74 1016.84 1016.96 1017.10 1017.26 1017.43 1017.58 1017.70 1017.78 1017.79 1017.76 1017.67 1017.56 1017.44 1017.32 1017.23 1017.16 1017.11 1017.06 1017.00 1016.90 1016.75 1016.56 1016.33
1014.95 1015.26 1015.58 1015.89 1016.17 1016.41 1016.59 1016.72 1016.80 1016.84 1016.85 1016.85 1016.84 1016.83 1016.80 1016.76 1016.70 1016.62 1016.55 1016.48 1016.45 1016.46 1016.52 1016.63 1016.78 1016.95 1017.09 1017.20 1017.25 1017.24 1017.16 1017.04 1016.90 1016.76 1016.65 1016.57 1016.51 1016.46 1016.40 1016.32 1016.19 1016.03 1015.82
1015.16 1015.48 1015.82 1016.15 1016.44 1016.69 1016.88 1017.01 1017.09 1017.14 1017.17 1017.18 1017.18 1017.17 1017.12 1017.03 1016.90 1016.72 1016.51 1016.31 1016.13 1016.00 1015.96 1015.98 1016.08 1016.23 1016.38 1016.51 1016.59 1016.60 1016.56 1016.46 1016.33 1016.19 1016.08 1015.99 1015.93 1015.88 1015.83 1015.75 1015.65 1015.50 1015.32
1015.48 1015.80 1016.14 1016.47 1016.76 1017.00 1017.18 1017.30 1017.38 1017.43 1017.47 1017.51 1017.53 1017.52 1017.47 1017.36 1017.17 1016.91 1016.59 1016.25 1015.93 1015.67 1015.49 1015.40 1015.42 1015.51 1015.64 1015.77 1015.87 1015.92 1015.91 1015.85 1015.76 1015.66 1015.56 1015.48 1015.42 1015.37 1015.32 1015.25 1015.15 1015.02 1014.86
1015.88 1016.17 1016.49 1016.80 1017.07 1017.29 1017.45 1017.55 1017.62 1017.68 1017.73 1017.78 1017.83 1017.85 1017.82 1017.71 1017.50 1017.18 1016.79 1016.35 1015.90 1015.50 1015.18 1014.97 1014.88 1014.88 1014.95 1015.06 1015.17 1015.24 1015.28 1015.28 1015.24 1015.18 1015.12 1015.07 1015.02 1014.97 1014.91 1014.83 1014.73 1014.60 1014.45
1016.29 1016.54 1016.82 1017.08 1017.32 1017.50 1017.63 1017.71 1017.77 1017.82 1017.88 1017.96 1018.04 1018.11 1018.11 1018.03 1017.83 1017.51 1017.08 1016.57 1016.04 1015.53 1015.08 1014.75 1014.53 1014.42 1014.42 1014.47 1014.55 1014.64 1014.71 1014.76 1014.78 1014.78 1014.76 1014.74 1014.71 1014.66 1014.60 1014.51 1014.40 1014.27 1014.13
1016.64 1016.84 1017.05 1017.27 1017.45 1017.59 1017.68 1017.74 1017.79 1017.84 1017.91 1018.02 1018.14 1018.25 1018.30 1018.27 1018.12 1017.83 1017.41 1016.89 1016.31 1015.73 1015.19 1014.74 1014.40 1014.18 1014.07 1014.04 1014.08 1014.14 1014.22 1014.30 1014.37 1014.42 1014.45 1014.46 1014.45 1014.42 1014.36 1014.26 1014.15 1014.02 1013.89
1016.86 1017.00 1017.16 1017.32 1017.45 1017.55 1017.62 1017.66 1017.69 1017.74 1017.83 1017.95 1018.10 1018.25 1018.36 1018.39 1018.30 1018.07 1017.71 1017.22 1016.66 1016.05 1015.46 1014.93 1014.48 1014.15 1013.92 1013.79 1013.74 1013.76 1013.81 1013.89 1013.98 1014.06 1014.13 1014.19 1014.21 1014.19 1014.14 1014.06 1013.95 1013.83 1013.71
1016.93 1017.01 1017.12 1017.23 1017.32 1017.39 1017.44 1017.47 1017.49 1017.54 1017.63 1017.76 1017.92 1018.10 1018.25 1018.34 1018.32 1018.18 1017.90 1017.49 1016.98 1016.40 1015.81 1015.23 1014.71 1014.27 1013.93 1013.69 1013.53 1013.46 1013.45 1013.50 1013.58 1013.68 1013.77 1013.86 1013.91 1013.93 1013.91 1013.85 1013.77 1013.67 1013.58
1016.83 1016.88 1016.94 1017.02 1017.09 1017.15 1017.19 1017.22 1017.24 1017.28 1017.36 1017.47 1017.63 1017.81 1017.98 1018.10 1018.16 1018.10 1017.92 1017.61 1017.20 1016.69 1016.14 1015.56 1015.01 1014.49 1014.05 1013.68 1013.41 1013.23 1013.13 1013.11 1013.15 1013.23 1013.33 1013.44 1013.53 1013.59 1013.61 1013.59 1013.55 1013.50 1013.45
1016.60 1016.62 1016.67 1016.74 1016.81 1016.87 1016.91 1016.94 1016.96 1016.99 1017.04 1017.12 1017.24 1017.39 1017.55 1017.69 1017.78 1017.80 1017.72 1017.53 1017.23 1016.84 1016.36 1015.83 1015.27 1014.72 1014.19 1013.72 1013.33 1013.03 1012.82 1012.71 1012.68 1012.72 1012.82 1012.93 1013.05 1013.15 1013.22 1013.27 1013.28 1013.29 1013.29
1016.29 1016.30 1016.35 1016.42 1016.50 1016.57 1016.63 1016.66 1016.68 1016.69 1016.70 1016.73 1016.78 1016.87 1016.99 1017.11 1017.22 1017.29 1017.29 1017.22 1017.05 1016.78 1016.41 1015.95 1015.44 1014.88 1014.31 1013.76 1013.27 1012.85 1012.53 1012.31 1012.20 1012.19 1012.25 1012.36 1012.49 1012.63 1012.75 1012.85 1012.93 1012.99 1013.05
1015.92 1015.94 1016.00 1016.09 1016.19 1016.28 1016.36 1016.40 1016.40 1016.38 1016.34 1016.31 1016.29 1016.30 1016.34 1016.42 1016.51 1016.60 1016.67 1016.69 1016.64 1016.49 1016.24 1015.89 1015.44 1014.92 1014.34 1013.76 1013.19 1012.68 1012.26 1011.95 1011.76 1011.67 1011.68 1011.76 1011.89 1012.05 1012.20 1012.35 1012.48 1012.60 1012.71
1015.54 1015.58 1015.65 1015.76 1015.87 1015.99 1016.07 1016.12 1016.11 1016.06 1015.97 1015.87 1015.77 1015.69 1015.65 1015.66 1015.72 1015.81 1015.90 1015.99 1016.03 1015.99 1015.87 1015.63 1015.27 1014.82 1014.28 1013.69 1013.10 1012.54 1012.05 1011.66 1011.39 1011.23 1011.18 1011.21 1011.31 1011.45 1011.61 1011.77 1011.93 1012.09 1012.24
1015.14 1015.20 1015.29 1015.41 1015.54 1015.66 1015.75 1015.79 1015.78 1015.70 1015.57 1015.41 1015.24 1015.09 1014.97 1014.91 1014.91 1014.97 1015.08 1015.19 1015.30 1015.35 1015.33 1015.20 1014.94 1014.58 1014.11 1013.57 1012.99 1012.43 1011.91 1011.46 1011.13 1010.90 1010.77 1010.74 1010.78 1010.87 1010.99 1011.13 1011.29 1011.45 1011.63
1014.73 1014.79 1014.89 1015.01 1015.15 1015.27 1015.36 1015.39 1015.37 1015.28 1015.13 1014.94 1014.72 1014.51 1014.34 1014.22 1014.16 1014.18 1014.26 1014.38 1014.52 1014.63 1014.68 1014.64 1014.49 1014.22 1013.84 1013.38 1012.86 1012.33 1011.81 1011.35 1010.97 1010.68 1010.48 1010.36 1010.31 1010.32 1010.38 1010.46 1010.58 1010.72 1010.89
1014.28 1014.36 1014.45 1014.57 1014.69 1014.79 1014.87 1014.91 1014.88 1014.79 1014.64 1014.45 1014.22 1013.99 1013.78 1013.62 1013.52 1013.49 1013.54 1013.63 1013.76 1013.89 1013.98 1014.01 1013.94 1013.77 1013.49 1013.13 1012.69 1012.22 1011.74 1011.29 1010.89 1010.55 1010.27 1010.06 1009.92 1009.82 1009.77 1009.77 1009.81 1009.91 1010.05
1013.82 1013.89 1013.98 1014.08 1014.17 1014.26 1014.32 1014.35 1014.33 1014.25 1014.13 1013.96 1013.75 1013.54 1013.33 1013.15 1013.01 1012.94 1012.94 1012.99 1013.08 1013.19 1013.29 1013.34 1013.33 1013.24 1013.06 1012.79 1012.45 1012.06 1011.64 1011.22 1010.82 1010.44 1010.11 1009.81 1009.56 1009.34 1009.18 1009.07 1009.02 1009.05 1009.15
1013.37 1013.44 1013.51 1013.58 1013.64 1013.70 1013.74 1013.76 1013.75 1013.70 1013.62 1013.50 1013.34 1013.17 1012.98 1012.81 1012.66 1012.55 1012.48 1012.47 1012.50 1012.56 1012.63 1012.68 1012.69 1012.65 1012.54 1012.35 1012.10 1011.80 1011.45 1011.07 1010.69 1010.29 1009.91 1009.54 1009.19 1008.87 1008.60 1008.38 1008.24 1008.20 1008.25
1012.98 1013.05 1013.10 1013.14 1013.17 1013.19 1013.20 1013.22 1013.22 1013.20 1013.17 1013.11 1013.02 1012.90 1012.75 1012.59 1012.43 1012.29 1012.16 1012.08 1012.03 1012.01 1012.01 1012.03 1012.02 1012.00 1011.92 1011.80 1011.62 1011.39 1011.11 1010.78 1010.42 1010.03 1009.62 1009.20 1008.79 1008.39 1008.03 1007.72 1007.51 1007.39 1007.40
1012.71 1012.78 1012.82 1012.82 1012.82 1012.80 1012.79 1012.79 1012.80 1012.81 1012.82 1012.82 1012.79 1012.72 1012.62 1012.48 1012.31 1012.13 1011.94 1011.78 1011.63 1011.52 1011.44 1011.38 1011.34 1011.29 1011.22 1011.13 1010.99 1010.81 1010.58 1010.30 1009.97 1009.60 1009.19 1008.76 1008.31 1007.87 1007.46 1007.11 1006.84 1006.67 1006.64
1012.61 1012.67 1012.70 1012.68 1012.64 1012.59 1012.56 1012.54 1012.55 1012.58 1012.62 1012.65 1012.66 1012.63 1012.56 1012.42 1012.24 1012.02 1011.77 1011.52 1011.28 1011.07 1010.89 1010.75 1010.64 1010.54 1010.45 1010.35 1010.23 1010.07 1009.87 1009.62 1009.33 1008.99 1008.61 1008.19 1007.76 1007.32 1006.90 1006.53 1006.24 1006.06 1006.00
1012.65 1012.73 1012.74 1012.70 1012.64 1012.57 1012.51 1012.47 1012.47 1012.50 1012.55 1012.59 1012.62 1012.60 1012.53 1012.38 1012.17 1011.90 1011.59 1011.26 1010.93 1010.63 1010.36 1010.13 1009.93 1009.77 1009.63 1009.50 1009.36 1009.20 1009.01 1008.79 1008.52 1008.22 1007.88 1007.51 1007.12 1006.73 1006.34 1006.00 1005.72 1005.53 1005.45
Thickness
5782 5781 5779 5778 5778 5777 5776 5773 5772 5771 5770 5768 5767 5766 5764 5762 5759 5756 5754 5751 5750 5748 5747 5746 5744 5743 5742 5741 5739 5737 5736 5734 5733 5732 5730 5729 5727 5725 5724 5723 5722 5721 5720
5782 5780 5779 5778 5778 5777 5776 5774 5773 5771 5770 5768 5766 5765 5764 5761 5759 5756 5754 5751 5749 5747 5746 5744 5743 5742 5741 5740 5738 5736 5734 5733 5732 5731 5730 5728 5726 5725 5724 5722 5721 5720 5719
5783 5781 5779 5778 5778 5777 5775 5774 5773 5772 5769 5768 5766 5764 5763 5761 5758 5756 5754 5751 5748 5747 5745 5744 5742 5741 5740 5739 5737 5735 5734 5732 5731 5730 5728 5727 5725 5724 5723 5721 5720 5719 5718
5783 5781 5779 5778 5777 5776 5774 5773 5771 5768 5767 5766 5764 5762 5761 5759 5758 5756 5753 5751 5749 5747 5744 5743 5741 5740 5739 5738 5736 5734 5733 5732 5731 5729 5727 5726 5724 5723 5721 5720 5719 5718 5717
5783 5781 5779 5778 5777 5775 5773 5772 5769 5767 5764 5763 5761 5760 5759 5758 5756 5755 5752 5750 5748 5746 5743 5741 5739 5738 5737 5736 5734 5732 5731 5730 5729 5727 5725 5724 5723 5721 5720 5719 5717 5716 5715
5783 5781 5779 5777 5776 5774 5772 5770 5767 5766 5764 5762 5761 5758 5756 5756 5755 5753 5751 5749 5746 5744 5742 5740 5737 5735 5735 5734 5732 5731 5729 5729 5727 5725 5724 5722 5720 5719 5717 5716 5715 5713 5712
5783 5781 5779 5777 5775 5772 5770 5769 5766 5764 5762 5761 5756 5752 5752 5753 5752 5751 5749 5747 5744 5743 5741 5739 5737 5735 5734 5732 5730 5729 5727 5726 5725 5723 5721 5719 5718 5716 5715 5714 5712 5711 5710
5783 5781 5778 5776 5774 5771 5768 5767 5765 5762 5761 5761 5755 5748 5742 5741 5744 5748 5746 5744 5742 5741 5740 5738 5736 5734 5732 5730 5728 5726 5725 5723 5722 5720 5718 5716 5715 5713 5712 5711 5709 5708 5707
5783 5780 5778 5776 5774 5772 5768 5766 5765 5762 5758 5759 5759 5752 5742 5735 5737 5741 5742 5741 5740 5738 5737 5736 5734 5732 5730 5728 5725 5723 5722 5720 5718 5716 5715 5713 5711 5710 5709 5707 5706 5705 5704
5783 5780 5778 5775 5773 5771 5768 5767 5766 5764 5761 5757 5757 5757 5754 5748 5739 5732 5735 5737 5738 5736 5734 5734 5732 5730 5728 5725 5722 5720 5718 5716 5714 5712 5711 5709 5707 5706 5705 5703 5702 5701 5700
5782 5780 5777 5775 5772 5770 5768 5766 5765 5763 5761 5758 5756 5755 5753 5750 5747 5737 5729 5730 5732 5733 5733 5731 5729 5727 5725 5722 5719 5716 5714 5711 5710 5708 5706 5704 5703 5702 5701 5699 5698 5697 5696
5781 5779 5777 5774 5772 5769 5767 5766 5764 5763 5761 5759 5757 5755 5752 5747 5744 5740 5733 5729 5727 5728 5730 5729 5727 5725 5722 5719 5716 5713 5710 5708 5705 5703 5701 5700 5699 5698 5696 5695 5694 5693 5691
5780 5778 5777 5774 5771 5769 5767 5766 5764 5762 5760 5758 5757 5755 5753 5751 5749 5744 5736 5730 5726 5725 5725 5725 5724 5722 5719 5716 5712 5709 5706 5704 5702 5699 5697 5696 5694 5692 5691 5690 5688 5687 5686
5781 5780 5777 5774 5772 5769 5767 5765 5763 5761 5760 5758 5757 5755 5752 5751 5749 5746 5739 5731 5723 5720 5719 5718 5719 5718 5716 5712 5708 5705 5702 5700 5698 5696 5694 5691 5689 5687 5686 5684 5683 5681 5679
5783 5780 5777 5774 5771 5769 5767 5765 5762 5760 5759 5757 5755 5754 5751 5750 5749 5746 5742 5737 5726 5716 5712 5714 5714 5714 5712 5708 5705 5701 5699 5696 5694 5692 5690 5687 5685 5683 5681 5679 5677 5675 5674
5781 5779 5776 5773 5770 5768 5766 5763 5761 5760 5758 5756 5754 5752 5750 5749 5746 5744 5740 5736 5731 5723 5713 5713 5711 5711 5709 5706 5701 5698 5695 5693 5691 5688 5686 5683 5680 5678 5676 5674 5672 5670 5668
5779 5777 5774 5771 5769 5766 5765 5762 5760 5758 5756 5754 5753 5750 5748 5746 5743 5741 5738 5734 5730 5724 5714 5711 5710 5708 5705 5702 5698 5695 5692 5689 5686 5684 5682 5679 5676 5674 5671 5669 5666 5664 5662
5779 5776 5773 5770 5768 5765 5763 5761 5759 5757 5755 5752 5750 5748 5745 5744 5740 5737 5734 5730 5727 5723 5716 5708 5705 5702 5700 5698 5695 5692 5690 5687 5683 5680 5678 5675 5672 5669 5666 5664 5661 5659 5656
5777 5774 5772 5769 5766 5764 5762 5760 5758 5756 5754 5751 5748 5745 5743 5740 5736 5733 5730 5727 5724 5721 5716 5708 5703 5700 5697 5695 5691 5689 5687 5683 5680 5676 5673 5670 5668 5665 5662 5659 5656 5654 5651
5775 5772 5770 5767 5765 5763 5761 5759 5756 5754 5752 5749 5747 5744 5742 5739 5734 5731 5727 5724 5720 5716 5712 5707 5701 5697 5693 5691 5688 5683 5680 5679 5676 5673 5669 5666 5663 5660 5657 5654 5651 5648 5645
5773 5770 5767 5765 5763 5761 5760 5756 5754 5752 5748 5746 5743 5741 5738 5735 5732 5728 5725 5721 5717 5712 5707 5702 5697 5693 5689 5685 5682 5681 5677 5675 5673 5670 5665 5662 5659 5656 5652 5649 5646 5644 5641
5771 5768 5765 5763 5760 5760 5756 5754 5751 5749 5746 5743 5739 5737 5734 5731 5728 5724 5721 5718 5714 5709 5704 5699 5694 5689 5686 5684 5681 5678 5674 5670 5666 5667 5663 5659 5657 5653 5649 5646 5643 5640 5637
5767 5765 5762 5760 5757 5755 5753 5750 5747 5746 5743 5740 5737 5734 5732 5729 5725 5721 5716 5713 5709 5705 5702 5698 5692 5688 5685 5683 5679 5674 5670 5667 5664 5664 5660 5656 5654 5650 5647 5644 5640 5637 5633
5763 5761 5759 5757 5754 5752 5749 5746 5743 5742 5740 5737 5735 5731 5727 5724 5722 5718 5714 5709 5705 5702 5699 5695 5692 5688 5685 5681 5677 5673 5668 5665 5663 5661 5658 5652 5650 5647 5645 5640 5636 5633 5629
5760 5758 5756 5754 5751 5748 5745 5742 5738 5738 5735 5733 5731 5728 5725 5721 5717 5714 5710 5705 5700 5697 5695 5692 5688 5684 5681 5677 5673 5668 5663 5659 5656 5655 5654 5649 5646 5643 5640 5635 5631 5628 5624
5758 5756 5754 5752 5749 5745 5741 5738 5734 5734 5731 5728 5726 5723 5720 5717 5713 5709 5705 5701 5696 5693 5691 5687 5682 5679 5676 5672 5669 5665 5660 5655 5652 5649 5649 5645 5641 5637 5632 5631 5627 5623 5619